User: anonymous   Login
Location: Unspecified
(0.0000°N, 0.0000°E)
Time: 22:18:40
(UTC+00:00)
Language:

OBJECT DK - Orbit

View from above orbital plane
View from above orbital plane
View from above satellite
View from above satellite

Ground track
Ground track

The orbit is defined by the following mean orbital elements,

1 66771U          26145.11356455 +.00000000 +00000-0 +23465-3 0 00001
2 66771  97.4238 219.3792 0001135  33.9141 326.2167 15.20439303    03
Epoch (UTC): 25 May 2026 02:43:31
Eccentricity: 0.0001135
inclination: 97.4238°
perigee height: 504 km
apogee height: 505 km
right ascension of ascending node: 219.3792°
argument of perigee: 33.9141°
revolutions per day: 15.20439303
mean anomaly at epoch: 326.2167°

The dashed part of the orbit path shows where the satellite is in the earth's shadow,  

DLR